Location: Newark
(43.0000°N, 1.6781°W)
Time: 02:36:35
(UTC+00:00)

Tiros 1 - All Passes

Search period start: 21 April 2021 00:00
Search period end: 01 May 2021 00:00
Orbit: 630 x 663 km, 48.4° (Epoch: 20 April)

Date Brightness Start Highest point End Pass type
(mag) Time Alt. Az. Time Alt. Az. Time Alt. Az.
21 Apr - 08:29:41 10° SW 08:34:06 43° SE 08:38:30 10° ENE daylight
21 Apr - 10:11:38 10° W 10:16:14 60° NNW 10:20:50 10° ENE daylight
21 Apr - 11:54:31 10° WNW 11:58:56 42° N 12:03:21 10° ENE daylight
21 Apr - 13:36:57 10° WNW 13:41:34 73° NNE 13:46:11 10° ESE daylight
21 Apr - 15:19:27 10° WNW 15:23:30 31° SW 15:27:33 10° SSE daylight
22 Apr - 07:14:54 10° S 07:18:16 20° SE 07:21:38 10° E daylight
22 Apr - 08:55:18 10° WSW 08:59:58 82° SSE 09:04:37 10° ENE daylight
22 Apr - 10:37:58 10° W 10:42:26 45° N 10:46:54 10° ENE daylight
22 Apr - 12:20:41 10° WNW 12:25:12 49° NNE 12:29:41 10° E daylight
22 Apr - 14:02:57 10° WNW 14:07:33 66° SSW 14:12:07 10° SE daylight
22 Apr - 15:46:36 10° W 15:49:03 14° SW 15:51:32 10° SSW daylight
23 Apr - 07:39:32 10° SSW 07:43:54 40° SE 07:48:16 10° ENE daylight
23 Apr - 09:21:22 10° W 09:26:00 62° NNW 09:30:37 10° ENE daylight
23 Apr - 11:04:17 10° WNW 11:08:42 42° N 11:13:07 10° ENE daylight
23 Apr - 12:46:43 10° WNW 12:51:21 70° NNE 12:55:58 10° ESE daylight
23 Apr - 14:29:12 10° WNW 14:33:20 33° SW 14:37:27 10° SSE daylight
24 Apr - 06:24:53 10° S 06:28:06 18° SE 06:31:17 10° E daylight
24 Apr - 08:05:04 10° WSW 08:09:45 78° SSE 08:14:25 10° ENE daylight
24 Apr - 09:47:42 10° W 09:52:12 46° N 09:56:40 10° ENE daylight
24 Apr - 11:30:27 10° WNW 11:34:58 48° N 11:39:26 10° E daylight
24 Apr - 13:12:44 10° WNW 13:17:20 70° SSW 13:21:56 10° SE daylight
24 Apr - 14:56:10 10° W 14:58:54 16° SW 15:01:39 10° S daylight
25 Apr - 06:49:23 10° SSW 06:53:43 38° SE 06:58:02 10° ENE daylight
25 Apr - 08:31:07 10° WSW 08:35:46 65° NNW 08:40:24 10° ENE daylight
25 Apr - 10:14:01 10° WNW 10:18:28 42° N 10:22:52 10° ENE daylight
25 Apr - 11:56:30 10° WNW 12:01:07 66° NNE 12:05:43 10° ESE daylight
25 Apr - 13:38:55 10° WNW 13:43:08 36° SW 13:47:21 10° SSE daylight
26 Apr - 05:34:55 10° S 05:37:55 17° SE 05:40:55 10° E daylight
26 Apr - 07:14:51 10° SW 07:19:32 73° SSE 07:24:12 10° ENE daylight
26 Apr - 08:57:25 10° W 09:01:57 47° N 09:06:27 10° ENE daylight
26 Apr - 10:40:13 10° WNW 10:44:43 47° N 10:49:11 10° E daylight
26 Apr - 12:22:30 10° WNW 12:27:08 75° SSW 12:31:44 10° SE daylight
26 Apr - 14:05:45 10° W 14:08:44 17° SW 14:11:44 10° S daylight
27 Apr - 05:59:16 10° SSW 06:03:32 35° SE 06:07:47 10° ENE daylight
27 Apr - 07:40:52 10° WSW 07:45:33 68° NNW 07:50:12 10° ENE daylight
27 Apr - 09:23:45 10° WNW 09:28:12 42° N 09:32:37 10° ENE daylight
27 Apr - 11:06:16 10° WNW 11:10:54 64° NNE 11:15:29 10° ESE daylight
27 Apr - 12:48:40 10° WNW 12:52:58 38° SW 12:57:14 10° SSE daylight
28 Apr - 04:44:58 10° S 04:47:45 16° SE 04:50:31 10° E daylight
28 Apr - 06:24:38 10° SW 06:29:19 68° SSE 06:33:59 10° ENE daylight
28 Apr - 08:07:09 10° W 08:11:42 48° NNW 08:16:13 10° ENE daylight
28 Apr - 09:49:58 10° WNW 09:54:28 46° N 09:58:56 10° E daylight
28 Apr - 11:32:16 10° WNW 11:36:56 80° SSW 11:41:32 10° ESE daylight
28 Apr - 13:15:22 10° W 13:18:35 19° SW 13:21:46 10° S daylight
29 Apr - 05:09:08 10° SSW 05:13:20 32° SE 05:17:31 10° ENE daylight
29 Apr - 06:50:36 10° WSW 06:55:19 72° NNW 06:59:59 10° ENE daylight
29 Apr - 08:33:29 10° WNW 08:37:58 42° N 08:42:23 10° ENE daylight
29 Apr - 10:16:02 10° WNW 10:20:40 61° NNE 10:25:15 10° E daylight
29 Apr - 11:58:24 10° WNW 12:02:46 41° SW 12:07:06 10° SSE daylight
30 Apr - 03:55:04 10° SSE 03:57:35 14° SE 04:00:05 10° E visible
30 Apr - 05:34:26 10° SW 05:39:07 64° SSE 05:43:45 10° ENE daylight
30 Apr - 07:16:52 10° W 07:21:27 50° NNW 07:26:00 10° ENE daylight
30 Apr - 08:59:43 10° WNW 09:04:13 45° N 09:08:41 10° E daylight
30 Apr - 10:42:03 10° WNW 10:46:43 85° SSW 10:51:20 10° ESE daylight
30 Apr - 12:25:01 10° W 12:28:25 20° SW 12:31:47 10° S daylight
